Temp
10 10 10 10 9 9 11 13 13 12 12 12 12 11 11 10 11 11 11 11 11 11 10 9 10 10 10 10 10 10 10 10 10 10 10 9 10 9 10 9 9 9 9 9 9 9 9 9 8
9 9 9 9 8 11 12 13 12 12 11 12 12 12 11 10 11 11 11 11 11 11 10 10 10 10 10 10 10 10 10 10 10 10 10 10 10 10 10 10 10 10 10 9 9 9 9 9 9
9 9 8 7 9 10 12 13 13 12 12 12 12 12 10 11 11 11 11 11 11 11 11 10 10 10 10 10 10 10 10 9 10 10 10 10 10 10 10 10 10 10 10 10 9 9 9 9 9
8 8 8 7 9 10 11 13 12 12 12 12 11 11 12 11 11 11 11 11 11 11 11 10 10 10 10 10 10 10 9 9 9 9 10 10 10 10 10 10 10 10 10 10 9 9 9 9 9
6 6 6 7 8 10 11 12 12 11 11 12 12 10 12 12 11 11 11 11 11 11 10 10 10 10 10 9 9 9 9 9 9 9 9 10 10 10 10 10 10 10 10 10 10 10 9 9 9
5 5 6 7 9 9 10 11 11 10 10 10 12 10 12 12 11 11 11 11 11 11 10 10 10 10 10 10 9 9 9 9 9 9 9 10 10 10 10 10 10 10 10 10 9 9 9 9 10
5 4 5 7 9 10 10 10 9 10 11 9 11 10 11 11 11 11 11 11 11 11 10 10 10 10 10 10 9 9 9 9 9 9 9 9 10 10 10 10 10 10 10 10 9 9 9 10 9
3 2 4 5 7 9 10 9 8 9 10 10 10 9 10 11 11 11 11 11 11 11 10 10 10 10 10 10 9 9 9 9 9 9 9 9 9 10 10 10 10 10 10 9 9 9 9 9 9
2 1 3 5 6 7 8 8 8 7 9 9 9 9 11 11 11 11 11 11 11 11 10 10 10 10 10 9 9 9 9 9 9 9 9 9 9 9 9 10 10 10 9 9 9 9 9 9 8
1 1 3 4 5 6 6 6 6 6 7 7 8 9 10 11 11 11 11 11 10 11 10 10 10 10 10 9 9 9 9 9 9 9 9 9 9 9 9 9 9 9 9 9 9 9 9 9 9
-1 -0 2 3 2 2 4 3 5 6 7 8 8 9 9 10 10 10 10 10 10 10 10 10 10 10 9 9 9 9 9 9 9 9 9 9 9 9 9 9 9 9 9 9 9 9 8 8 8
-2 -1 -0 0 0 1 3 3 4 5 6 7 7 6 8 9 10 10 10 9 9 10 9 9 9 9 9 9 9 9 9 8 8 8 8 9 9 9 9 9 9 9 9 9 8 8 8 8 8
-2 -2 -1 -1 -1 -0 1 2 4 4 5 6 7 6 8 8 9 9 9 9 9 9 9 9 9 9 9 9 9 8 8 8 8 8 8 8 8 9 9 9 9 9 8 8 8 8 7 7 7
-2 -2 -2 -2 -2 -1 -0 1 3 4 5 6 6 6 7 8 8 9 9 9 9 9 9 9 9 9 9 8 8 8 8 8 8 8 8 8 8 8 8 8 8 8 8 7 7 7 7 7 7
-2 -3 -2 -2 -2 -1 -1 -0 2 4 3 3 4 5 6 7 8 8 8 8 8 8 8 9 9 8 8 8 8 8 8 7 8 8 8 8 8 8 8 8 8 7 7 7 7 6 6 6 6
-3 -2 -2 0 -1 -1 -1 1 2 2 2 3 4 5 6 6 7 8 8 8 8 8 8 8 8 8 8 8 8 8 7 7 7 7 7 8 8 7 8 8 7 7 7 6 6 6 6 6 6
-3 -2 -1 -1 -1 -1 -1 0 2 2 2 2 3 4 5 6 7 8 8 8 8 8 8 8 8 8 8 8 8 7 7 7 7 7 7 7 7 7 7 7 7 6 6 6 5 5 5 5 5
-3 -2 -2 -2 -1 -1 -1 -0 1 1 2 2 2 4 4 5 6 7 8 8 8 7 7 7 7 7 7 7 7 7 7 7 7 7 7 7 7 7 6 6 6 6 5 5 5 5 4 4 4
-4 -3 -3 -3 -2 -2 -1 -0 0 1 1 1 2 3 4 3 6 7 7 7 7 7 7 7 7 7 7 7 7 6 6 6 6 6 6 6 6 6 6 6 5 5 5 5 4 4 4 3 3
-4 -4 -4 -3 -2 -2 -1 -1 0 1 1 1 2 2 3 3 5 7 7 7 7 7 7 7 7 7 7 7 6 6 6 6 6 6 6 6 6 5 5 5 5 5 4 4 4 3 3 2 2
-4 -4 -4 -4 -3 -2 -1 -0 0 1 1 1 2 2 3 3 5 7 7 7 7 7 7 6 6 6 6 6 6 6 6 6 6 6 6 5 5 5 5 5 4 4 4 3 3 2 2 2 1
-4 -4 -3 -3 -3 -2 -0 2 3 3 2 3 3 3 3 2 4 6 6 7 7 7 7 6 6 6 6 6 6 6 6 6 5 6 5 5 5 5 4 4 4 3 3 2 2 1 1 1 0
-4 -4 -4 -4 -4 -3 -1 0 3 3 3 3 3 2 3 3 4 6 6 6 6 6 6 7 6 6 6 5 5 5 5 5 5 5 5 5 4 4 4 3 3 2 2 2 1 1 0 -0 -1
-5 -4 -4 -4 -4 -2 -0 1 2 4 3 3 3 3 2 3 4 5 5 6 6 6 5 5 6 6 5 5 5 5 5 5 5 4 5 4 4 4 3 3 2 2 1 1 0 -0 -1 -1 -2
-4 -4 -3 -2 -2 1 0 0 1 3 2 3 3 3 2 4 4 5 5 5 6 6 6 6 5 5 5 5 5 5 5 4 4 4 4 4 3 3 3 2 2 1 1 0 -0 -1 -1 -2 -2
-4 -4 -2 0 0 2 -2 -0 1 2 2 2 2 3 2 4 3 4 4 4 5 5 5 5 5 5 5 4 4 4 4 4 4 4 4 3 3 2 2 1 1 0 -0 -0 -1 -1 -2 -2 -3
-4 -4 -3 -1 -1 1 2 1 1 2 2 2 2 2 3 3 3 3 3 4 5 5 5 5 5 4 4 4 4 4 4 4 4 3 3 3 2 2 1 1 0 -0 -1 -1 -2 -2 -2 -3 -3
-3 -3 -2 -1 -0 1 3 2 2 2 1 2 2 2 3 3 3 3 3 4 4 4 4 5 5 4 4 3 4 4 4 3 3 3 2 2 2 1 1 0 -0 -1 -1 -2 -2 -3 -3 -4 -4
-3 -3 -2 -2 -0 1 2 3 1 1 1 1 2 2 3 3 3 3 4 4 4 4 5 4 4 4 3 3 4 3 3 3 2 2 2 1 1 0 -0 -1 -1 -1 -2 -2 -3 -3 -4 -5 -5
-3 -3 -3 -2 -1 -1 -1 1 0 -0 0 1 2 2 3 3 3 3 3 4 4 4 4 4 4 4 4 4 3 3 2 2 2 2 1 1 0 -0 -1 -1 -1 -2 -2 -3 -4 -4 -5 -5 -6
Height
3147 3150 3153 3155 3161 3155 3150 3152 3153 3152 3151 3151 3151 3153 3155 3154 3155 3157 3152 3151 3151 3152 3153 3155 3156 3156 3157 3158 3159 3159 3160 3160 3160 3159 3159 3159 3158 3158 3157 3157 3156 3155 3155 3154 3153 3151 3150 3149 3148
3143 3145 3148 3151 3152 3148 3145 3149 3149 3150 3149 3148 3149 3150 3152 3153 3151 3151 3151 3150 3149 3151 3152 3154 3155 3156 3157 3158 3159 3159 3160 3160 3160 3160 3160 3159 3159 3158 3158 3157 3156 3155 3154 3153 3152 3151 3150 3149 3148
3138 3141 3144 3144 3141 3139 3143 3146 3148 3149 3145 3147 3148 3149 3149 3148 3149 3149 3149 3149 3149 3150 3152 3153 3155 3156 3156 3157 3158 3159 3159 3160 3160 3160 3160 3160 3159 3159 3158 3157 3156 3155 3154 3153 3152 3151 3150 3149 3147
3133 3135 3137 3132 3130 3134 3139 3144 3144 3144 3143 3144 3146 3147 3147 3148 3147 3148 3148 3147 3148 3149 3151 3152 3154 3155 3156 3156 3157 3158 3159 3159 3160 3160 3160 3159 3159 3159 3158 3157 3156 3156 3155 3153 3152 3150 3149 3147 3146
3126 3128 3127 3123 3123 3131 3136 3140 3140 3141 3141 3142 3144 3145 3144 3145 3146 3146 3146 3146 3147 3148 3150 3151 3152 3154 3155 3155 3157 3157 3158 3158 3159 3159 3159 3159 3159 3158 3158 3157 3156 3156 3155 3153 3151 3150 3148 3147 3146
3120 3121 3119 3114 3119 3125 3130 3136 3135 3138 3141 3140 3140 3142 3140 3143 3144 3144 3144 3145 3146 3147 3148 3150 3151 3153 3154 3155 3156 3157 3157 3158 3158 3158 3158 3159 3158 3158 3157 3157 3156 3155 3154 3153 3151 3149 3148 3146 3145
3113 3116 3110 3113 3116 3120 3124 3131 3130 3134 3138 3137 3138 3139 3137 3140 3141 3142 3143 3143 3144 3145 3147 3148 3150 3151 3153 3154 3155 3156 3157 3157 3157 3157 3157 3157 3157 3157 3157 3156 3155 3154 3153 3152 3151 3149 3147 3145 3144
3105 3110 3107 3107 3110 3113 3121 3123 3126 3129 3134 3136 3133 3136 3134 3136 3139 3140 3141 3142 3143 3144 3145 3147 3149 3150 3151 3153 3154 3155 3156 3156 3156 3156 3156 3156 3156 3156 3156 3155 3154 3153 3152 3151 3150 3148 3146 3144 3143
3101 3101 3098 3103 3109 3112 3116 3118 3118 3122 3124 3127 3126 3129 3129 3133 3136 3137 3139 3140 3142 3143 3144 3145 3148 3150 3150 3151 3153 3154 3154 3155 3155 3155 3155 3156 3155 3155 3155 3154 3154 3153 3152 3150 3149 3147 3144 3142 3141
3094 3095 3096 3103 3106 3105 3109 3109 3113 3117 3118 3120 3121 3126 3127 3131 3132 3135 3136 3139 3140 3141 3144 3142 3146 3148 3149 3150 3151 3152 3153 3153 3154 3154 3154 3155 3154 3154 3154 3153 3153 3152 3150 3149 3147 3145 3143 3141 3139
3091 3088 3095 3098 3095 3097 3098 3101 3106 3107 3112 3119 3119 3120 3121 3127 3129 3131 3133 3136 3138 3139 3141 3140 3144 3146 3148 3149 3149 3151 3151 3152 3152 3153 3153 3153 3153 3153 3153 3152 3151 3150 3148 3147 3145 3143 3141 3139 3137
3086 3087 3089 3091 3091 3091 3096 3098 3097 3102 3107 3111 3110 3111 3115 3122 3125 3129 3131 3133 3135 3136 3139 3138 3142 3144 3145 3147 3147 3148 3150 3150 3151 3151 3152 3152 3152 3151 3151 3150 3148 3147 3146 3144 3142 3141 3139 3136 3134
3082 3083 3085 3083 3084 3085 3089 3089 3093 3094 3098 3101 3102 3106 3111 3116 3120 3123 3127 3129 3131 3133 3136 3136 3139 3141 3143 3145 3146 3146 3148 3148 3149 3149 3150 3150 3150 3149 3148 3147 3146 3144 3143 3142 3140 3138 3136 3134 3132
3081 3079 3078 3079 3079 3080 3082 3083 3087 3089 3094 3096 3099 3102 3106 3109 3114 3117 3122 3125 3127 3130 3132 3134 3136 3138 3140 3142 3144 3145 3145 3146 3147 3147 3148 3148 3148 3147 3146 3145 3143 3142 3140 3139 3137 3135 3133 3131 3130
3076 3076 3075 3074 3074 3074 3077 3075 3075 3082 3087 3090 3093 3096 3100 3104 3108 3112 3117 3120 3123 3126 3129 3131 3133 3135 3137 3139 3140 3142 3143 3143 3144 3145 3145 3145 3145 3144 3144 3142 3141 3139 3137 3135 3133 3132 3130 3129 3127
3074 3073 3071 3071 3070 3071 3072 3067 3072 3078 3080 3082 3088 3092 3095 3098 3102 3107 3111 3114 3118 3121 3125 3127 3130 3132 3134 3136 3138 3139 3140 3141 3142 3142 3143 3143 3142 3142 3141 3139 3137 3136 3134 3132 3130 3128 3127 3125 3124
3070 3069 3068 3069 3067 3068 3068 3065 3068 3070 3074 3076 3080 3086 3088 3092 3096 3100 3105 3109 3113 3116 3120 3123 3126 3129 3131 3133 3135 3136 3137 3138 3139 3139 3139 3139 3139 3138 3137 3136 3134 3132 3131 3128 3127 3125 3123 3121 3119
3067 3066 3066 3066 3067 3065 3064 3061 3063 3066 3067 3070 3072 3079 3083 3084 3090 3095 3100 3104 3108 3111 3115 3119 3122 3124 3127 3130 3131 3133 3134 3135 3136 3136 3137 3136 3135 3135 3134 3132 3130 3128 3127 3125 3123 3122 3120 3117 3115
3066 3064 3063 3064 3063 3063 3060 3058 3058 3060 3061 3063 3066 3073 3078 3079 3083 3088 3094 3099 3102 3106 3110 3114 3118 3121 3124 3126 3127 3129 3131 3132 3133 3133 3133 3133 3132 3131 3130 3128 3126 3124 3123 3121 3119 3118 3115 3113 3111
3063 3062 3060 3058 3059 3059 3056 3052 3052 3052 3052 3056 3061 3066 3071 3075 3074 3082 3087 3092 3097 3101 3105 3110 3114 3118 3120 3122 3124 3126 3127 3128 3129 3130 3129 3129 3128 3127 3126 3124 3122 3120 3119 3117 3115 3113 3111 3109 3106
3060 3059 3058 3057 3056 3054 3052 3045 3042 3043 3046 3050 3053 3059 3065 3068 3069 3075 3080 3086 3091 3096 3100 3105 3110 3114 3117 3118 3121 3123 3124 3125 3126 3126 3126 3125 3124 3122 3121 3119 3118 3117 3115 3113 3110 3108 3106 3103 3101
3055 3055 3054 3054 3054 3051 3047 3040 3036 3037 3039 3042 3046 3050 3056 3061 3063 3069 3074 3080 3087 3092 3097 3103 3107 3110 3113 3115 3117 3119 3120 3122 3122 3122 3122 3121 3119 3118 3116 3115 3114 3112 3110 3107 3105 3103 3101 3098 3095
3053 3051 3050 3050 3050 3049 3045 3044 3032 3034 3035 3038 3041 3047 3051 3056 3059 3064 3070 3077 3083 3088 3093 3099 3102 3106 3109 3112 3114 3116 3117 3117 3117 3117 3117 3116 3114 3113 3112 3110 3108 3107 3104 3102 3100 3098 3095 3093 3090
3048 3046 3047 3048 3047 3043 3040 3041 3031 3031 3034 3038 3041 3043 3047 3052 3055 3060 3065 3071 3077 3083 3089 3093 3096 3101 3107 3109 3110 3112 3113 3113 3113 3113 3112 3110 3109 3108 3107 3105 3103 3101 3099 3097 3095 3092 3090 3087 3085
3041 3044 3043 3046 3042 3035 3035 3037 3033 3030 3033 3035 3036 3041 3044 3047 3051 3056 3061 3066 3073 3079 3084 3089 3094 3098 3103 3106 3106 3107 3108 3108 3108 3107 3106 3106 3104 3103 3102 3100 3098 3096 3095 3092 3089 3087 3084 3082 3079
3042 3042 3033 3033 3033 3031 3034 3033 3030 3030 3030 3032 3034 3036 3040 3044 3048 3053 3058 3064 3070 3075 3081 3086 3091 3096 3099 3100 3102 3103 3104 3104 3103 3102 3102 3101 3099 3098 3096 3095 3093 3091 3089 3086 3084 3081 3079 3076 3073
3043 3043 3041 3038 3035 3033 3029 3030 3029 3028 3028 3029 3031 3035 3038 3042 3045 3049 3055 3061 3067 3073 3078 3083 3088 3091 3094 3096 3098 3098 3099 3098 3098 3097 3097 3095 3094 3093 3091 3089 3087 3085 3083 3081 3078 3075 3072 3069 3066
3044 3044 3043 3040 3036 3029 3023 3026 3027 3027 3027 3026 3030 3032 3036 3039 3043 3048 3054 3059 3064 3070 3075 3080 3084 3088 3091 3091 3093 3093 3094 3093 3093 3092 3091 3091 3089 3088 3086 3084 3082 3080 3078 3075 3072 3068 3066 3063 3059
3044 3043 3042 3041 3038 3033 3025 3023 3027 3026 3026 3026 3028 3030 3034 3037 3042 3047 3052 3057 3063 3068 3073 3077 3081 3084 3086 3087 3088 3088 3089 3089 3089 3088 3087 3085 3084 3082 3081 3079 3076 3074 3071 3068 3065 3062 3059 3056 3052
3040 3040 3040 3038 3037 3033 3033 3029 3025 3022 3021 3024 3026 3029 3033 3036 3040 3046 3051 3056 3061 3066 3070 3074 3077 3079 3081 3082 3084 3084 3085 3085 3084 3083 3081 3080 3078 3077 3075 3073 3070 3068 3065 3062 3059 3055 3052 3048 3045
Wind_Speed
32 29 27 25 13 13 22 21 15 8 8 10 8 9 7 8 6 5 6 5 10 13 13 10 8 7 6 5 5 3 2 1 2 3 4 5 6 6 7 7 8 8 8 8 9 9 10 11 12
32 30 27 23 19 26 26 22 18 12 11 9 12 8 7 9 12 10 8 9 10 12 13 11 9 8 7 6 5 3 2 0 1 2 4 5 6 7 7 8 8 9 10 10 10 10 10 11 11
29 29 26 19 29 34 31 21 22 14 19 13 13 10 12 14 11 8 7 9 10 13 12 11 9 8 7 7 6 4 2 1 2 2 3 5 6 8 8 8 9 10 10 11 12 12 12 12 11
27 28 31 29 32 30 33 23 15 20 23 18 13 9 15 12 11 9 8 8 11 12 12 11 10 9 8 8 7 5 3 2 3 3 4 4 5 7 8 9 9 10 10 11 12 13 12 12 11
26 29 26 32 38 32 27 29 19 20 18 19 18 14 15 11 13 12 10 9 11 12 12 11 9 8 8 9 7 6 4 3 3 4 5 4 4 6 8 9 9 9 10 11 12 13 13 13 13
27 29 27 39 36 34 33 27 27 20 18 16 21 17 20 14 11 12 12 11 13 13 14 12 10 9 9 9 7 6 5 3 3 5 5 4 4 6 7 8 9 9 10 12 13 14 15 15 15
30 22 34 34 33 34 31 30 27 24 21 20 20 19 23 18 16 13 14 14 14 14 15 13 11 10 9 9 8 6 5 4 4 5 4 4 5 6 7 8 9 9 11 12 14 15 16 15 15
27 25 32 34 35 34 25 31 27 26 25 23 21 14 24 20 15 16 16 15 15 15 15 13 11 11 10 9 8 7 5 4 4 4 4 4 5 6 7 9 9 10 12 14 16 16 16 15 15
27 25 31 30 27 30 25 25 31 22 27 28 34 27 26 23 18 18 17 16 15 16 16 14 12 11 11 10 8 7 6 4 3 4 3 4 5 6 7 9 9 10 12 14 15 16 16 16 15
26 25 29 22 22 22 25 28 19 23 30 23 33 26 29 22 23 18 17 16 15 15 17 14 13 12 11 11 9 8 7 5 3 3 4 4 5 6 8 9 11 12 13 15 16 16 16 16 16
17 30 18 21 22 17 23 17 23 30 28 27 28 29 31 25 16 16 19 18 16 17 19 16 15 14 13 12 10 10 8 6 5 5 5 5 6 8 9 10 12 13 15 16 17 18 18 17 17
22 20 21 21 18 27 33 22 29 24 26 26 32 26 36 30 26 17 17 21 20 19 20 17 17 16 14 13 12 11 10 8 7 6 6 7 8 9 10 12 13 15 16 18 19 19 18 18 17
21 20 19 18 23 28 28 35 35 32 26 30 36 31 35 33 28 25 18 24 24 22 20 18 18 17 16 14 14 12 11 10 8 8 8 8 9 10 12 13 14 16 17 18 18 18 18 18 18
10 15 19 22 22 23 27 34 36 40 36 33 33 30 37 32 29 29 23 23 27 25 21 20 19 18 17 16 15 14 13 11 10 9 10 10 11 12 13 14 16 17 18 18 18 19 19 19 19
15 18 20 21 20 20 19 31 41 39 24 24 34 31 29 35 36 30 27 22 26 28 24 22 20 19 19 18 17 15 14 12 11 11 12 12 13 14 15 16 18 18 18 18 19 19 19 20 20
14 16 18 14 16 22 17 27 27 30 30 35 29 30 38 32 33 36 31 27 26 30 29 24 21 21 20 19 18 16 15 14 13 13 13 14 15 15 17 18 19 19 19 19 19 20 21 21 22
15 17 12 11 14 11 19 20 18 21 23 30 27 27 32 34 34 41 38 32 30 31 32 27 24 23 21 20 19 18 17 15 14 15 15 15 16 17 19 20 20 20 20 20 20 20 21 23 25
10 13 12 14 10 10 18 24 19 13 20 23 24 29 28 35 33 37 34 34 33 32 34 30 27 25 23 21 20 19 18 16 16 16 17 17 18 19 20 21 21 21 20 20 20 21 23 24 25
18 23 22 17 13 17 21 22 22 21 23 21 22 25 28 29 36 35 40 37 35 34 35 33 29 26 23 21 21 20 18 17 17 18 18 19 20 20 21 22 21 21 20 20 21 23 24 24 25
19 22 22 23 20 16 19 23 22 22 25 25 23 23 23 24 37 37 37 46 38 35 36 34 31 26 24 23 22 20 19 18 18 19 20 21 21 21 22 22 21 20 20 21 23 23 24 25 26
17 21 20 19 16 21 23 29 27 26 25 23 28 26 24 24 37 37 38 45 42 37 35 34 29 25 25 24 22 20 19 19 20 20 21 21 21 22 22 21 20 20 22 22 23 23 25 26 25
18 15 17 17 15 12 3 9 9 14 23 26 28 33 34 24 35 37 34 38 46 37 34 29 27 26 27 25 22 20 19 19 20 21 21 22 22 22 20 19 20 21 22 22 23 24 25 26 26
16 12 13 17 16 17 16 13 10 11 19 22 24 28 33 26 30 37 30 33 40 37 32 32 28 27 28 24 21 19 19 21 21 22 23 23 22 20 19 20 21 22 22 23 24 25 26 26 27
20 24 15 10 15 8 17 16 14 16 13 15 18 24 24 23 27 32 28 35 39 36 34 32 31 29 27 22 19 19 20 21 22 23 24 21 19 19 20 21 22 23 24 24 25 26 26 27 28
16 9 5 6 7 5 3 11 23 5 3 14 15 21 22 23 24 28 27 34 36 32 31 29 30 24 23 21 19 20 21 21 23 23 20 19 20 20 21 22 23 24 25 25 26 27 28 28 29
8 12 5 3 3 6 5 6 7 10 20 15 15 23 22 20 23 27 28 28 28 28 28 27 24 21 21 20 20 20 21 22 22 19 19 21 20 21 22 23 24 25 26 27 28 28 29 30 31
5 11 9 9 3 4 7 8 12 14 13 12 13 22 22 18 25 27 28 26 24 25 24 22 21 21 21 20 20 20 21 20 18 20 21 20 21 22 23 24 25 26 27 28 29 30 31 32 33
9 7 6 6 4 4 3 6 7 4 8 14 12 18 22 22 26 24 23 23 24 23 22 21 21 21 21 18 19 20 18 18 20 20 20 21 23 23 24 25 26 27 27 29 30 31 32 34 35
8 11 9 8 7 4 5 2 6 13 14 14 14 15 23 21 25 25 23 22 22 21 21 21 20 18 18 18 18 18 19 19 19 20 22 23 23 24 24 25 26 27 28 29 31 32 33 34 35
14 15 12 5 5 4 3 9 11 14 9 11 14 14 22 21 25 25 24 23 22 22 20 18 16 16 17 17 18 18 18 19 21 22 22 23 23 23 24 25 26 28 28 29 30 31 33 35 36
Wind_Direction
249 248 247 248 247 240 247 243 239 235 233 227 204 186 196 220 202 241 246 236 221 207 197 203 207 194 186 185 171 155 128 87 63 53 46 36 31 29 22 20 19 15 10 8 7 4 3 5 8
247 246 243 238 234 235 243 238 237 234 229 233 225 216 220 235 232 237 245 244 219 198 201 198 203 198 191 190 183 177 158 80 15 23 22 27 23 20 17 18 16 14 14 12 10 6 2 1 1
245 243 236 233 236 234 237 234 235 229 235 238 230 221 221 232 228 232 231 240 209 201 197 198 201 201 199 196 192 193 190 261 312 342 356 12 17 16 13 12 11 8 9 9 7 4 1 358 353
241 240 238 229 232 235 231 233 232 229 241 235 221 235 243 232 228 226 236 231 207 198 199 199 201 205 207 199 199 203 210 257 302 316 323 348 4 9 10 8 6 2 1 3 2 360 357 353 347
236 232 235 240 237 233 235 231 251 227 236 239 232 233 240 234 230 230 235 228 210 199 196 200 201 207 208 202 204 210 219 247 289 308 311 321 344 352 0 3 -0 356 357 358 357 354 352 348 344
232 226 234 237 240 238 231 234 238 226 227 226 232 216 237 238 230 226 225 222 211 201 198 198 201 204 206 207 209 220 230 254 291 308 313 314 329 341 351 353 353 350 350 351 351 351 350 347 343
234 233 239 243 243 239 234 228 228 227 226 227 226 223 239 233 232 229 221 221 212 206 200 197 198 200 207 212 215 222 239 266 298 316 322 325 330 339 345 346 348 346 344 345 347 349 349 346 342
228 235 246 243 241 241 237 229 238 228 231 238 227 222 245 230 228 227 224 222 213 206 205 198 204 201 204 211 218 225 239 268 305 321 326 330 337 341 342 344 343 342 340 341 345 346 346 344 343
234 232 240 241 244 244 234 231 232 221 217 230 237 220 237 227 226 224 220 221 215 211 208 198 209 215 204 210 218 224 234 257 296 312 322 333 340 340 340 342 340 336 337 339 341 341 342 343 342
236 240 243 247 248 242 228 236 234 238 218 227 230 233 236 232 229 224 219 217 218 213 215 198 213 218 218 211 218 227 237 251 274 294 313 326 333 336 339 339 335 334 336 336 336 337 338 337 337
248 243 245 246 242 235 213 225 234 223 220 227 245 231 227 218 212 210 212 213 216 212 217 200 212 220 221 222 220 233 240 249 268 289 307 317 324 331 336 333 333 333 332 331 332 335 336 337 335
251 250 245 245 237 235 221 239 231 232 222 217 218 218 225 221 219 223 217 213 216 213 219 205 213 220 222 229 227 234 244 251 263 280 297 306 317 326 327 329 331 329 327 328 333 334 333 333 332
256 253 250 254 248 247 237 231 230 232 222 215 217 221 223 219 222 222 218 216 216 218 218 210 216 221 226 229 236 235 244 251 261 275 286 299 309 314 320 325 326 322 322 328 329 328 328 327 327
255 268 255 255 253 255 245 240 230 236 237 229 224 226 227 222 218 218 218 220 218 219 218 216 218 224 227 229 236 241 245 254 264 275 284 292 298 308 315 319 318 318 322 324 324 325 325 324 325
260 265 268 261 256 259 257 250 235 233 214 232 234 229 229 230 223 215 214 222 222 220 222 221 220 226 230 233 237 244 249 256 265 274 282 288 297 304 310 313 315 318 320 320 321 320 321 322 324
270 267 267 272 246 251 243 257 252 244 239 236 221 232 234 229 228 220 220 223 225 220 223 221 225 228 232 237 241 246 253 259 266 273 280 288 296 302 306 310 315 318 317 318 318 320 323 324 323
254 259 265 265 272 244 231 257 264 225 236 237 234 223 234 226 222 224 227 227 224 220 222 222 225 231 233 238 243 249 255 261 268 275 283 291 296 300 304 311 316 316 314 314 317 320 321 320 320
267 264 258 266 271 254 248 256 251 237 234 239 234 223 231 227 222 223 224 222 222 219 219 221 225 231 234 237 243 250 257 263 270 277 285 290 294 298 304 312 314 312 310 313 316 317 317 318 317
278 281 281 273 273 274 264 260 255 249 244 237 230 219 224 229 224 222 215 224 220 219 217 222 227 233 236 239 243 249 257 263 271 279 286 291 293 298 307 311 308 307 310 312 314 314 315 316 315
266 268 272 280 274 267 269 268 259 247 242 236 228 222 224 219 223 219 217 219 220 220 218 220 227 232 235 240 245 252 259 266 274 283 289 290 293 302 306 304 304 306 307 309 311 312 312 313 316
268 261 266 273 274 275 273 278 261 243 237 236 225 222 219 219 223 217 220 217 219 217 219 221 227 233 237 241 245 254 262 270 278 284 286 289 297 301 300 300 302 302 305 308 308 309 311 313 314
274 266 261 263 264 258 268 283 299 237 227 231 225 224 220 218 221 219 222 219 218 216 218 221 228 234 238 239 246 255 263 273 277 282 286 294 297 296 295 296 299 302 303 305 306 307 309 310 310
270 277 264 250 252 268 264 265 288 234 225 227 224 220 220 224 221 219 225 218 213 216 209 223 226 233 238 239 246 256 266 272 277 283 291 295 293 292 293 296 298 299 302 303 304 306 307 306 308
287 281 246 245 242 241 249 235 276 241 241 232 225 212 215 220 215 216 219 214 211 213 215 217 216 228 237 241 248 258 265 271 279 287 291 289 289 290 294 295 296 298 300 301 304 303 302 303 304
280 219 176 207 209 254 177 231 242 279 255 228 212 207 207 215 211 213 212 203 208 212 214 217 223 222 232 240 248 258 266 274 283 287 285 284 286 291 292 293 296 298 299 299 300 300 300 301 302
223 209 291 255 209 213 197 236 244 252 247 252 196 187 203 208 207 204 202 205 207 209 211 213 217 223 233 242 250 261 269 278 281 280 280 284 288 289 291 294 295 296 297 298 299 299 299 300 301
238 225 302 321 312 289 225 242 270 262 265 242 222 213 203 208 203 198 196 197 201 205 207 211 217 226 236 246 254 265 274 274 273 277 281 286 287 290 291 293 295 296 298 298 299 299 300 301 300
247 264 287 248 283 266 246 283 273 335 256 248 228 214 207 208 203 197 195 193 196 199 204 212 221 230 240 251 262 267 264 268 273 277 282 284 286 288 293 295 296 297 299 300 300 301 300 300 299
261 255 254 282 272 294 303 79 315 293 288 256 221 219 211 205 195 196 193 192 197 200 207 215 224 234 245 255 258 258 264 268 273 278 281 284 288 292 294 296 298 300 301 301 300 300 300 300 300
255 258 262 254 292 276 326 291 312 315 265 250 221 210 207 198 188 195 189 191 196 202 208 218 230 241 250 250 253 259 264 271 275 279 284 290 293 295 297 298 301 301 301 300 299 300 301 302 302